Location: Serpentine
(32.3617°S, 115.9768°E)
Time: 09:53:39
(UTC+08:00)

X-37B - Pass Details

Date: 12 December 2021
Orbit: 334 x 337 km, 45.0° (Epoch: 11 January)

Event Time Altitude Azimuth Distance (km) Brightness Sun altitude
Exits shadow 03:12:34 51° 78° (ENE) 438 0.9 -19.4°
Drops below altitude 10° 03:15:01 10° 118° (ESE) 1,294 4.3 -19.1°
Sets 03:17:04 0° 121° (ESE) 2,139 5.8 -18.8°
